Year,Month,Day,Hour,Minute,Value (Times are PST for temperature in C)
2011,08,31,00,00,12.80
2011,08,31,00,01,12.80
2011,08,31,00,02,12.80
2011,08,31,00,03,12.80
2011,08,31,00,04,12.80
2011,08,31,00,05,12.70
2011,08,31,00,06,12.70
2011,08,31,00,07,12.70
2011,08,31,00,08,12.70
2011,08,31,00,09,12.60
2011,08,31,00,10,12.60
2011,08,31,00,11,12.60
2011,08,31,00,12,12.60
2011,08,31,00,13,12.60
2011,08,31,00,14,12.60
2011,08,31,00,15,12.60
2011,08,31,00,16,12.50
2011,08,31,00,17,12.50
2011,08,31,00,18,12.50
2011,08,31,00,19,12.50
2011,08,31,00,20,12.50
2011,08,31,00,21,12.60
2011,08,31,00,22,12.60
2011,08,31,00,23,12.60
2011,08,31,00,24,12.60
2011,08,31,00,25,12.60
2011,08,31,00,26,12.60
2011,08,31,00,27,12.60
2011,08,31,00,28,12.60
2011,08,31,00,29,12.60
2011,08,31,00,30,12.60
2011,08,31,00,31,12.70
2011,08,31,00,32,12.70
2011,08,31,00,33,12.70
2011,08,31,00,34,12.70
2011,08,31,00,35,12.80
2011,08,31,00,36,12.80
2011,08,31,00,37,12.80
2011,08,31,00,38,12.80
2011,08,31,00,39,12.80
2011,08,31,00,40,12.80
2011,08,31,00,41,12.80
2011,08,31,00,42,12.80
2011,08,31,00,43,12.80
2011,08,31,00,44,12.70
2011,08,31,00,45,12.70
2011,08,31,00,46,12.70
2011,08,31,00,47,12.70
2011,08,31,00,48,12.70
2011,08,31,00,49,12.60
2011,08,31,00,50,12.60
2011,08,31,00,51,12.50
2011,08,31,00,52,12.50
2011,08,31,00,53,12.40
2011,08,31,00,54,12.40
2011,08,31,00,55,12.40
2011,08,31,00,56,12.30
2011,08,31,00,57,12.30
2011,08,31,00,58,12.30
2011,08,31,00,59,12.20
2011,08,31,01,00,12.20
2011,08,31,01,01,12.10
2011,08,31,01,02,12.10
2011,08,31,01,03,12.10
2011,08,31,01,04,12.00
2011,08,31,01,05,12.00
2011,08,31,01,06,11.90
2011,08,31,01,07,11.90
2011,08,31,01,08,11.90
2011,08,31,01,09,11.80
2011,08,31,01,10,11.80
2011,08,31,01,11,11.80
2011,08,31,01,12,11.70
2011,08,31,01,13,11.70
2011,08,31,01,14,11.70
2011,08,31,01,15,11.60
2011,08,31,01,16,11.60
2011,08,31,01,17,11.60
2011,08,31,01,18,11.60
2011,08,31,01,19,11.50
2011,08,31,01,20,11.50
2011,08,31,01,21,11.40
2011,08,31,01,22,11.40
2011,08,31,01,23,11.40
2011,08,31,01,24,11.40
2011,08,31,01,25,11.40
2011,08,31,01,26,11.30
2011,08,31,01,27,11.30
2011,08,31,01,28,11.30
2011,08,31,01,29,11.30
2011,08,31,01,30,11.20
2011,08,31,01,31,11.20
2011,08,31,01,32,11.20
2011,08,31,01,33,11.20
2011,08,31,01,34,11.20
2011,08,31,01,35,11.20
2011,08,31,01,36,11.10
2011,08,31,01,37,11.10
2011,08,31,01,38,11.10
2011,08,31,01,39,11.10
2011,08,31,01,40,11.10
2011,08,31,01,41,11.10
2011,08,31,01,42,11.00
2011,08,31,01,43,11.00
2011,08,31,01,44,11.00
2011,08,31,01,45,11.00
2011,08,31,01,46,11.00
2011,08,31,01,47,10.90
2011,08,31,01,48,10.90
2011,08,31,01,49,10.90
2011,08,31,01,50,10.90
2011,08,31,01,51,10.90
2011,08,31,01,52,10.90
2011,08,31,01,53,10.80
2011,08,31,01,54,10.80
2011,08,31,01,55,10.80
2011,08,31,01,56,10.80
2011,08,31,01,57,10.80
2011,08,31,01,58,10.80
2011,08,31,01,59,10.80
2011,08,31,02,00,10.80
2011,08,31,02,01,10.80
2011,08,31,02,02,10.80
2011,08,31,02,03,10.70
2011,08,31,02,04,10.70
2011,08,31,02,05,10.70
2011,08,31,02,06,10.70
2011,08,31,02,07,10.70
2011,08,31,02,08,10.70
2011,08,31,02,09,10.70
2011,08,31,02,10,10.70
2011,08,31,02,11,10.60
2011,08,31,02,12,10.60
2011,08,31,02,13,10.60
2011,08,31,02,14,10.60
2011,08,31,02,15,10.60
2011,08,31,02,16,10.60
2011,08,31,02,17,10.60
2011,08,31,02,18,10.50
2011,08,31,02,19,10.50
2011,08,31,02,20,10.50
2011,08,31,02,21,10.50
2011,08,31,02,22,10.40
2011,08,31,02,23,10.40
2011,08,31,02,24,10.40
2011,08,31,02,25,10.40
2011,08,31,02,26,10.40
2011,08,31,02,27,10.40
2011,08,31,02,28,10.40
2011,08,31,02,29,10.30
2011,08,31,02,30,10.30
2011,08,31,02,31,10.30
2011,08,31,02,32,10.30
2011,08,31,02,33,10.30
2011,08,31,02,34,10.20
2011,08,31,02,35,10.20
2011,08,31,02,36,10.20
2011,08,31,02,37,10.20
2011,08,31,02,38,10.20
2011,08,31,02,39,10.10
2011,08,31,02,40,10.10
2011,08,31,02,41,10.10
2011,08,31,02,42,10.10
2011,08,31,02,43,10.10
2011,08,31,02,44,10.00
2011,08,31,02,45,10.00
2011,08,31,02,46,10.00
2011,08,31,02,47,10.00
2011,08,31,02,48,10.00
2011,08,31,02,49,10.00
2011,08,31,02,50,10.00
2011,08,31,02,51,10.00
2011,08,31,02,52,9.90
2011,08,31,02,53,9.90
2011,08,31,02,54,9.90
2011,08,31,02,55,9.90
2011,08,31,02,56,9.80
2011,08,31,02,57,9.80
2011,08,31,02,58,9.80
2011,08,31,02,59,9.70
2011,08,31,03,00,9.70
2011,08,31,03,01,9.70
2011,08,31,03,02,9.70
2011,08,31,03,03,9.70
2011,08,31,03,04,9.70
2011,08,31,03,05,9.70
2011,08,31,03,06,9.70
2011,08,31,03,07,9.70
2011,08,31,03,08,9.70
2011,08,31,03,09,9.70
2011,08,31,03,10,9.70
2011,08,31,03,11,9.70
2011,08,31,03,12,9.70
2011,08,31,03,13,9.70
2011,08,31,03,14,9.70
2011,08,31,03,15,9.70
2011,08,31,03,16,9.70
2011,08,31,03,17,9.70
2011,08,31,03,18,9.70
2011,08,31,03,19,9.70
2011,08,31,03,20,9.70
2011,08,31,03,21,9.70
2011,08,31,03,22,9.70
2011,08,31,03,23,9.70
2011,08,31,03,24,9.70
2011,08,31,03,25,9.70
2011,08,31,03,26,9.70
2011,08,31,03,27,9.70
2011,08,31,03,28,9.70
2011,08,31,03,29,9.60
2011,08,31,03,30,9.60
2011,08,31,03,31,9.60
2011,08,31,03,32,9.60
2011,08,31,03,33,9.60
2011,08,31,03,34,9.60
2011,08,31,03,35,9.60
2011,08,31,03,36,9.60
2011,08,31,03,37,9.60
2011,08,31,03,38,9.60
2011,08,31,03,39,9.60
2011,08,31,03,40,9.50
2011,08,31,03,41,9.60
2011,08,31,03,42,9.60
2011,08,31,03,43,9.60
2011,08,31,03,44,9.60
2011,08,31,03,45,9.60
2011,08,31,03,46,9.60
2011,08,31,03,47,9.60
2011,08,31,03,48,9.60
2011,08,31,03,49,9.50
2011,08,31,03,50,9.50
2011,08,31,03,51,9.40
2011,08,31,03,52,9.40
2011,08,31,03,53,9.40
2011,08,31,03,54,9.40
2011,08,31,03,55,9.40
2011,08,31,03,56,9.40
2011,08,31,03,57,9.40
2011,08,31,03,58,9.40
2011,08,31,03,59,9.40
2011,08,31,04,00,9.40
2011,08,31,04,01,9.30
2011,08,31,04,02,9.30
2011,08,31,04,03,9.30
2011,08,31,04,04,9.30
2011,08,31,04,05,9.30
2011,08,31,04,06,9.30
2011,08,31,04,07,9.30
2011,08,31,04,08,9.30
2011,08,31,04,09,9.30
2011,08,31,04,10,9.20
2011,08,31,04,11,9.20
2011,08,31,04,12,9.20
2011,08,31,04,13,9.20
2011,08,31,04,14,9.20
2011,08,31,04,15,9.20
2011,08,31,04,16,9.20
2011,08,31,04,17,9.20
2011,08,31,04,18,9.20
2011,08,31,04,19,9.10
2011,08,31,04,20,9.10
2011,08,31,04,21,9.10
2011,08,31,04,22,9.10
2011,08,31,04,23,9.10
2011,08,31,04,24,9.10
2011,08,31,04,25,9.10
2011,08,31,04,26,9.10
2011,08,31,04,27,9.00
2011,08,31,04,28,9.00
2011,08,31,04,29,9.00
2011,08,31,04,30,9.00
2011,08,31,04,31,9.00
2011,08,31,04,32,9.00
2011,08,31,04,33,9.00
2011,08,31,04,34,9.00
2011,08,31,04,35,9.00
2011,08,31,04,36,9.00
2011,08,31,04,37,9.00
2011,08,31,04,38,9.00
2011,08,31,04,39,9.00
2011,08,31,04,40,9.10
2011,08,31,04,41,9.10
2011,08,31,04,42,9.10
2011,08,31,04,43,9.10
2011,08,31,04,44,9.10
2011,08,31,04,45,9.00
2011,08,31,04,46,9.00
2011,08,31,04,47,9.00
2011,08,31,04,48,9.00
2011,08,31,04,49,8.90
2011,08,31,04,50,8.90
2011,08,31,04,51,8.90
2011,08,31,04,52,8.90
2011,08,31,04,53,8.90
2011,08,31,04,54,8.90
2011,08,31,04,55,8.90
2011,08,31,04,56,8.90
2011,08,31,04,57,8.90
2011,08,31,04,58,8.90
2011,08,31,04,59,8.90
2011,08,31,05,00,8.90
2011,08,31,05,01,8.90
2011,08,31,05,02,8.90
2011,08,31,05,03,8.90
2011,08,31,05,04,8.90
2011,08,31,05,05,8.90
2011,08,31,05,06,8.80
2011,08,31,05,07,8.80
2011,08,31,05,08,8.80
2011,08,31,05,09,8.80
2011,08,31,05,10,8.80
2011,08,31,05,11,8.80
2011,08,31,05,12,8.80
2011,08,31,05,13,8.80
2011,08,31,05,14,8.80
2011,08,31,05,15,8.80
2011,08,31,05,16,8.70
2011,08,31,05,17,8.70
2011,08,31,05,18,8.70
2011,08,31,05,19,8.70
2011,08,31,05,20,8.70
2011,08,31,05,21,8.70
2011,08,31,05,22,8.70
2011,08,31,05,23,8.60
2011,08,31,05,24,8.60
2011,08,31,05,25,8.60
2011,08,31,05,26,8.60
2011,08,31,05,27,8.60
2011,08,31,05,28,8.60
2011,08,31,05,29,8.60
2011,08,31,05,30,8.60
2011,08,31,05,31,8.70
2011,08,31,05,32,8.70
2011,08,31,05,33,8.70
2011,08,31,05,34,8.70
2011,08,31,05,35,8.70
2011,08,31,05,36,8.60
2011,08,31,05,37,8.60
2011,08,31,05,38,8.60
2011,08,31,05,39,8.60
2011,08,31,05,40,8.60
2011,08,31,05,41,8.60
2011,08,31,05,42,8.60
2011,08,31,05,43,8.60
2011,08,31,05,44,8.50
2011,08,31,05,45,8.60
2011,08,31,05,46,8.60
2011,08,31,05,47,8.60
2011,08,31,05,48,8.60
2011,08,31,05,49,8.60
2011,08,31,05,50,8.60
2011,08,31,05,51,8.60
2011,08,31,05,52,8.60
2011,08,31,05,53,8.60
2011,08,31,05,54,8.60
2011,08,31,05,55,8.60
2011,08,31,05,56,8.60
2011,08,31,05,57,8.60
2011,08,31,05,58,8.60
2011,08,31,05,59,8.60
2011,08,31,06,00,8.60
2011,08,31,06,01,8.60
2011,08,31,06,02,8.60
2011,08,31,06,03,8.50
2011,08,31,06,04,8.50
2011,08,31,06,05,8.50
2011,08,31,06,06,8.50
2011,08,31,06,07,8.40
2011,08,31,06,08,8.40
2011,08,31,06,09,8.40
2011,08,31,06,10,8.40
2011,08,31,06,11,8.40
2011,08,31,06,12,8.40
2011,08,31,06,13,8.30
2011,08,31,06,14,8.30
2011,08,31,06,15,8.30
2011,08,31,06,16,8.30
2011,08,31,06,17,8.30
2011,08,31,06,18,8.30
2011,08,31,06,19,8.30
2011,08,31,06,20,8.20
2011,08,31,06,21,8.20
2011,08,31,06,22,8.20
2011,08,31,06,23,8.20
2011,08,31,06,24,8.20
2011,08,31,06,25,8.20
2011,08,31,06,26,8.20
2011,08,31,06,27,8.20
2011,08,31,06,28,8.20
2011,08,31,06,29,8.20
2011,08,31,06,30,8.20
2011,08,31,06,31,8.20
2011,08,31,06,32,8.30
2011,08,31,06,33,8.30
2011,08,31,06,34,8.30
2011,08,31,06,35,8.30
2011,08,31,06,36,8.30
2011,08,31,06,37,8.20
2011,08,31,06,38,8.20
2011,08,31,06,39,8.20
2011,08,31,06,40,8.20
2011,08,31,06,41,8.20
2011,08,31,06,42,8.20
2011,08,31,06,43,8.20
2011,08,31,06,44,8.20
2011,08,31,06,45,8.10
2011,08,31,06,46,8.10
2011,08,31,06,47,8.10
2011,08,31,06,48,8.10
2011,08,31,06,49,8.10
2011,08,31,06,50,8.00
2011,08,31,06,51,8.00
2011,08,31,06,52,8.00
2011,08,31,06,53,8.00
2011,08,31,06,54,8.00
2011,08,31,06,55,8.00
2011,08,31,06,56,8.10
2011,08,31,06,57,8.20
2011,08,31,06,58,8.20
2011,08,31,06,59,8.20
2011,08,31,07,00,8.30
2011,08,31,07,01,8.30
2011,08,31,07,02,8.30
2011,08,31,07,03,8.30
2011,08,31,07,04,8.30
2011,08,31,07,05,8.20
2011,08,31,07,06,8.30
2011,08,31,07,07,8.30
2011,08,31,07,08,8.30
2011,08,31,07,09,8.30
2011,08,31,07,10,8.30
2011,08,31,07,11,8.30
2011,08,31,07,12,8.30
2011,08,31,07,13,8.30
2011,08,31,07,14,8.30
2011,08,31,07,15,8.30
2011,08,31,07,16,8.30
2011,08,31,07,17,8.30
2011,08,31,07,18,8.30
2011,08,31,07,19,8.30
2011,08,31,07,20,8.30
2011,08,31,07,21,8.30
2011,08,31,07,22,8.30
2011,08,31,07,23,8.30
2011,08,31,07,24,8.40
2011,08,31,07,25,8.40
2011,08,31,07,26,8.40
2011,08,31,07,27,8.50
2011,08,31,07,28,8.50
2011,08,31,07,29,8.60
2011,08,31,07,30,8.70
2011,08,31,07,31,8.70
2011,08,31,07,32,8.80
2011,08,31,07,33,8.90
2011,08,31,07,34,9.00
2011,08,31,07,35,9.00
2011,08,31,07,36,9.10
2011,08,31,07,37,9.20
2011,08,31,07,38,9.20
2011,08,31,07,39,9.30
2011,08,31,07,40,9.40
2011,08,31,07,41,9.50
2011,08,31,07,42,9.60
2011,08,31,07,43,9.60
2011,08,31,07,44,9.70
2011,08,31,07,45,9.70
2011,08,31,07,46,9.80
2011,08,31,07,47,9.90
2011,08,31,07,48,9.90
2011,08,31,07,49,10.00
2011,08,31,07,50,10.10
2011,08,31,07,51,10.20
2011,08,31,07,52,10.30
2011,08,31,07,53,10.40
2011,08,31,07,54,10.50
2011,08,31,07,55,10.60
2011,08,31,07,56,10.70
2011,08,31,07,57,10.80
2011,08,31,07,58,10.90
2011,08,31,07,59,11.00
2011,08,31,08,00,11.20
2011,08,31,08,01,11.30
2011,08,31,08,02,11.40
2011,08,31,08,03,11.50
2011,08,31,08,04,11.60
2011,08,31,08,05,11.60
2011,08,31,08,06,11.70
2011,08,31,08,07,11.80
2011,08,31,08,08,11.80
2011,08,31,08,09,11.90
2011,08,31,08,10,12.00
2011,08,31,08,11,12.10
2011,08,31,08,12,12.20
2011,08,31,08,13,12.30
2011,08,31,08,14,12.30
2011,08,31,08,15,12.40
2011,08,31,08,16,12.40
2011,08,31,08,17,12.40
2011,08,31,08,18,12.50
2011,08,31,08,19,12.50
2011,08,31,08,20,12.60
2011,08,31,08,21,12.70
2011,08,31,08,22,12.80
2011,08,31,08,23,12.80
2011,08,31,08,24,12.90
2011,08,31,08,25,12.90
2011,08,31,08,26,13.00
2011,08,31,08,27,13.00
2011,08,31,08,28,13.10
2011,08,31,08,29,13.10
2011,08,31,08,30,13.20
2011,08,31,08,31,13.20
2011,08,31,08,32,13.30
2011,08,31,08,33,13.30
2011,08,31,08,34,13.30
2011,08,31,08,35,13.30
2011,08,31,08,36,13.30
2011,08,31,08,37,13.30
2011,08,31,08,38,13.30
2011,08,31,08,39,13.40
2011,08,31,08,40,13.40
2011,08,31,08,41,13.40
2011,08,31,08,42,13.40
2011,08,31,08,43,13.50
2011,08,31,08,44,13.50
2011,08,31,08,45,13.60
2011,08,31,08,46,13.60
2011,08,31,08,47,13.60
2011,08,31,08,48,13.60
2011,08,31,08,49,13.60
2011,08,31,08,50,13.70
2011,08,31,08,51,13.70
2011,08,31,08,52,13.70
2011,08,31,08,53,13.80
2011,08,31,08,54,13.80
2011,08,31,08,55,13.80
2011,08,31,08,56,13.90
2011,08,31,08,57,13.90
2011,08,31,08,58,13.90
2011,08,31,08,59,14.00
2011,08,31,09,00,14.00
2011,08,31,09,01,14.10
2011,08,31,09,02,14.10
2011,08,31,09,03,14.20
2011,08,31,09,04,14.20
2011,08,31,09,05,14.30
2011,08,31,09,06,14.40
2011,08,31,09,07,14.40
2011,08,31,09,08,14.50
2011,08,31,09,09,14.60
2011,08,31,09,10,14.70
2011,08,31,09,11,14.80
2011,08,31,09,12,14.80
2011,08,31,09,13,15.00
2011,08,31,09,14,15.00
2011,08,31,09,15,15.00
2011,08,31,09,16,15.20
2011,08,31,09,17,15.30
2011,08,31,09,18,15.40
2011,08,31,09,19,15.60
2011,08,31,09,20,15.70
2011,08,31,09,21,15.80
2011,08,31,09,22,15.80
2011,08,31,09,23,15.90
2011,08,31,09,24,16.00
2011,08,31,09,25,16.10
2011,08,31,09,26,16.20
2011,08,31,09,27,16.30
2011,08,31,09,28,16.30
2011,08,31,09,29,16.20
2011,08,31,09,30,16.20
2011,08,31,09,31,16.10
2011,08,31,09,32,16.20
2011,08,31,09,33,16.20
2011,08,31,09,34,16.30
2011,08,31,09,35,16.40
2011,08,31,09,36,16.40
2011,08,31,09,37,16.50
2011,08,31,09,38,16.60
2011,08,31,09,39,16.60
2011,08,31,09,40,16.70
2011,08,31,09,41,16.70
2011,08,31,09,42,16.70
2011,08,31,09,43,16.60
2011,08,31,09,44,16.60
2011,08,31,09,45,16.50
2011,08,31,09,46,16.40
2011,08,31,09,47,16.30
2011,08,31,09,48,16.30
2011,08,31,09,49,16.20
2011,08,31,09,50,16.20
2011,08,31,09,51,16.20
2011,08,31,09,52,16.20
2011,08,31,09,53,16.20
2011,08,31,09,54,16.20
2011,08,31,09,55,16.20
2011,08,31,09,56,16.30
2011,08,31,09,57,16.30
2011,08,31,09,58,16.30
2011,08,31,09,59,16.20
2011,08,31,10,00,16.20
2011,08,31,10,01,16.10
2011,08,31,10,02,16.00
2011,08,31,10,03,16.00
2011,08,31,10,04,15.90
2011,08,31,10,05,15.90
2011,08,31,10,06,15.90
2011,08,31,10,07,15.90
2011,08,31,10,08,16.00
2011,08,31,10,09,16.00
2011,08,31,10,10,16.10
2011,08,31,10,11,16.10
2011,08,31,10,12,16.10
2011,08,31,10,13,16.10
2011,08,31,10,14,16.10
2011,08,31,10,15,16.10
2011,08,31,10,16,16.10
2011,08,31,10,17,16.10
2011,08,31,10,18,16.10
2011,08,31,10,19,16.10
2011,08,31,10,20,16.20
2011,08,31,10,21,16.20
2011,08,31,10,22,16.20
2011,08,31,10,23,16.20
2011,08,31,10,24,16.30
2011,08,31,10,25,16.40
2011,08,31,10,26,16.40
2011,08,31,10,27,16.50
2011,08,31,10,28,16.60
2011,08,31,10,29,16.60
2011,08,31,10,30,16.60
2011,08,31,10,31,16.70
2011,08,31,10,32,16.70
2011,08,31,10,33,16.70
2011,08,31,10,34,16.80
2011,08,31,10,35,16.80
2011,08,31,10,36,16.80
2011,08,31,10,37,16.70
2011,08,31,10,38,16.70
2011,08,31,10,39,16.70
2011,08,31,10,40,16.70
2011,08,31,10,41,16.70
2011,08,31,10,42,16.80
2011,08,31,10,43,16.80
2011,08,31,10,44,16.80
2011,08,31,10,45,16.80
2011,08,31,10,46,16.80
2011,08,31,10,47,16.70
2011,08,31,10,48,16.70
2011,08,31,10,49,16.70
2011,08,31,10,50,16.80
2011,08,31,10,51,16.80
2011,08,31,10,52,16.80
2011,08,31,10,53,16.90
2011,08,31,10,54,16.90
2011,08,31,10,55,17.00
2011,08,31,10,56,17.10
2011,08,31,10,57,17.10
2011,08,31,10,58,17.10
2011,08,31,10,59,17.10
2011,08,31,11,00,17.10
2011,08,31,11,01,17.10
2011,08,31,11,02,17.20
2011,08,31,11,03,17.20
2011,08,31,11,04,17.30
2011,08,31,11,05,17.30
2011,08,31,11,06,17.40
2011,08,31,11,07,17.40
2011,08,31,11,08,17.40
2011,08,31,11,09,17.50
2011,08,31,11,10,17.50
2011,08,31,11,11,17.40
2011,08,31,11,12,17.40
2011,08,31,11,13,17.40
2011,08,31,11,14,17.50
2011,08,31,11,15,17.60
2011,08,31,11,16,17.70
2011,08,31,11,17,17.70
2011,08,31,11,18,17.80
2011,08,31,11,19,17.90
2011,08,31,11,20,18.00
2011,08,31,11,21,18.10
2011,08,31,11,22,18.10
2011,08,31,11,23,18.20
2011,08,31,11,24,18.20
2011,08,31,11,25,18.10
2011,08,31,11,26,18.10
2011,08,31,11,27,18.10
2011,08,31,11,28,18.10
2011,08,31,11,29,18.10
2011,08,31,11,30,18.10
2011,08,31,11,31,18.20
2011,08,31,11,32,18.20
2011,08,31,11,33,18.30
2011,08,31,11,34,18.30
2011,08,31,11,35,18.30
2011,08,31,11,36,18.30
2011,08,31,11,37,18.40
2011,08,31,11,38,18.40
2011,08,31,11,39,18.30
2011,08,31,11,40,18.30
2011,08,31,11,41,18.40
2011,08,31,11,42,18.30
2011,08,31,11,43,18.30
2011,08,31,11,44,18.20
2011,08,31,11,45,18.00
2011,08,31,11,46,18.10
2011,08,31,11,47,18.10
2011,08,31,11,48,18.10
2011,08,31,11,49,18.20
2011,08,31,11,50,18.20
2011,08,31,11,51,18.10
2011,08,31,11,52,18.10
2011,08,31,11,53,18.10
2011,08,31,11,54,18.10
2011,08,31,11,55,18.10
2011,08,31,11,56,18.00
2011,08,31,11,57,18.00
2011,08,31,11,58,18.00
2011,08,31,11,59,18.00
2011,08,31,12,00,18.10
2011,08,31,12,01,18.10
2011,08,31,12,02,18.20
2011,08,31,12,03,18.30
2011,08,31,12,04,18.40
2011,08,31,12,05,18.50
2011,08,31,12,06,18.50
2011,08,31,12,07,18.50
2011,08,31,12,08,18.50
2011,08,31,12,09,18.50
2011,08,31,12,10,18.30
2011,08,31,12,11,18.30
2011,08,31,12,12,18.40
2011,08,31,12,13,18.50
2011,08,31,12,14,18.60
2011,08,31,12,15,18.70
2011,08,31,12,16,18.70
2011,08,31,12,17,18.70
2011,08,31,12,18,18.70
2011,08,31,12,19,18.70
2011,08,31,12,20,18.70
2011,08,31,12,21,18.60
2011,08,31,12,22,18.70
2011,08,31,12,23,18.70
2011,08,31,12,24,18.80
2011,08,31,12,25,18.70
2011,08,31,12,26,18.70
2011,08,31,12,27,18.70
2011,08,31,12,28,18.70
2011,08,31,12,29,18.80
2011,08,31,12,30,18.80
2011,08,31,12,31,18.90
2011,08,31,12,32,18.90
2011,08,31,12,33,19.00
2011,08,31,12,34,19.00
2011,08,31,12,35,19.10
2011,08,31,12,36,19.10
2011,08,31,12,37,19.20
2011,08,31,12,38,19.20
2011,08,31,12,39,19.10
2011,08,31,12,40,19.10
2011,08,31,12,41,19.00
2011,08,31,12,42,18.90
2011,08,31,12,43,18.90
2011,08,31,12,44,18.80
2011,08,31,12,45,18.70
2011,08,31,12,46,18.70
2011,08,31,12,47,18.70
2011,08,31,12,48,18.70
2011,08,31,12,49,18.60
2011,08,31,12,50,18.60
2011,08,31,12,51,18.60
2011,08,31,12,52,18.50
2011,08,31,12,53,18.50
2011,08,31,12,54,18.50
2011,08,31,12,55,18.60
2011,08,31,12,56,18.60
2011,08,31,12,57,18.70
2011,08,31,12,58,18.70
2011,08,31,12,59,18.80
2011,08,31,13,00,18.80
2011,08,31,13,01,18.90
2011,08,31,13,02,19.00
2011,08,31,13,03,19.00
2011,08,31,13,04,19.00
2011,08,31,13,05,19.00
2011,08,31,13,06,19.10
2011,08,31,13,07,19.20
2011,08,31,13,08,19.30
2011,08,31,13,09,19.50
2011,08,31,13,10,19.60
2011,08,31,13,11,19.70
2011,08,31,13,12,19.80
2011,08,31,13,13,19.80
2011,08,31,13,14,19.80
2011,08,31,13,15,19.80
2011,08,31,13,16,19.80
2011,08,31,13,17,19.80
2011,08,31,13,18,19.90
2011,08,31,13,19,19.80
2011,08,31,13,20,19.80
2011,08,31,13,21,19.70
2011,08,31,13,22,19.70
2011,08,31,13,23,19.70
2011,08,31,13,24,19.60
2011,08,31,13,25,19.60
2011,08,31,13,26,19.50
2011,08,31,13,27,19.50
2011,08,31,13,28,19.40
2011,08,31,13,29,19.30
2011,08,31,13,30,19.30
2011,08,31,13,31,19.20
2011,08,31,13,32,19.20
2011,08,31,13,33,19.20
2011,08,31,13,34,19.10
2011,08,31,13,35,19.00
2011,08,31,13,36,18.90
2011,08,31,13,37,18.80
2011,08,31,13,38,18.80
2011,08,31,13,39,18.80
2011,08,31,13,40,18.80
2011,08,31,13,41,18.80
2011,08,31,13,42,18.80
2011,08,31,13,43,18.80
2011,08,31,13,44,18.80
2011,08,31,13,45,18.80
2011,08,31,13,46,18.90
2011,08,31,13,47,19.00
2011,08,31,13,48,19.10
2011,08,31,13,49,19.10
2011,08,31,13,50,19.20
2011,08,31,13,51,19.30
2011,08,31,13,52,19.40
2011,08,31,13,53,19.50
2011,08,31,13,54,19.60
2011,08,31,13,55,19.60
2011,08,31,13,56,19.70
2011,08,31,13,57,19.70
2011,08,31,13,58,19.80
2011,08,31,13,59,19.80
2011,08,31,14,00,19.90
2011,08,31,14,01,19.90
2011,08,31,14,02,20.00
2011,08,31,14,03,20.00
2011,08,31,14,04,20.00
2011,08,31,14,05,20.10
2011,08,31,14,06,20.10
2011,08,31,14,07,20.10
2011,08,31,14,08,20.10
2011,08,31,14,09,20.00
2011,08,31,14,10,20.00
2011,08,31,14,11,20.00
2011,08,31,14,12,20.10
2011,08,31,14,13,20.20
2011,08,31,14,14,20.10
2011,08,31,14,15,20.10
2011,08,31,14,16,20.10
2011,08,31,14,17,20.10
2011,08,31,14,18,20.10
2011,08,31,14,19,20.00
2011,08,31,14,20,20.00
2011,08,31,14,21,19.90
2011,08,31,14,22,19.80
2011,08,31,14,23,19.70
2011,08,31,14,24,19.60
2011,08,31,14,25,19.60
2011,08,31,14,26,19.60
2011,08,31,14,27,19.60
2011,08,31,14,28,19.60
2011,08,31,14,29,19.60
2011,08,31,14,30,19.60
2011,08,31,14,31,19.60
2011,08,31,14,32,19.50
2011,08,31,14,33,19.50
2011,08,31,14,34,19.40
2011,08,31,14,35,19.40
2011,08,31,14,36,19.30
2011,08,31,14,37,19.30
2011,08,31,14,38,19.20
2011,08,31,14,39,19.20
2011,08,31,14,40,19.10
2011,08,31,14,41,19.10
2011,08,31,14,42,19.10
2011,08,31,14,43,19.10
2011,08,31,14,44,19.10
2011,08,31,14,45,19.20
2011,08,31,14,46,19.30
2011,08,31,14,47,19.30
2011,08,31,14,48,19.30
2011,08,31,14,49,19.30
2011,08,31,14,50,19.20
2011,08,31,14,51,19.10
2011,08,31,14,52,19.10
2011,08,31,14,53,19.10
2011,08,31,14,54,19.10
2011,08,31,14,55,19.10
2011,08,31,14,56,19.10
2011,08,31,14,57,19.10
2011,08,31,14,58,19.10
2011,08,31,14,59,19.20
2011,08,31,15,00,19.20
2011,08,31,15,01,19.10
2011,08,31,15,02,19.10
2011,08,31,15,03,19.00
2011,08,31,15,04,18.90
2011,08,31,15,05,18.80
2011,08,31,15,06,18.80
2011,08,31,15,07,18.90
2011,08,31,15,08,18.90
2011,08,31,15,09,19.00
2011,08,31,15,10,19.00
2011,08,31,15,11,19.00
2011,08,31,15,12,19.00
2011,08,31,15,13,19.00
2011,08,31,15,14,18.90
2011,08,31,15,15,18.90
2011,08,31,15,16,18.90
2011,08,31,15,17,18.90
2011,08,31,15,18,18.90
2011,08,31,15,19,18.80
2011,08,31,15,20,18.80
2011,08,31,15,21,18.80
2011,08,31,15,22,18.80
2011,08,31,15,23,18.80
2011,08,31,15,24,18.80
2011,08,31,15,25,18.80
2011,08,31,15,26,18.80
2011,08,31,15,27,18.80
2011,08,31,15,28,18.80
2011,08,31,15,29,18.80
2011,08,31,15,30,18.80
2011,08,31,15,31,18.80
2011,08,31,15,32,18.80
2011,08,31,15,33,18.70
2011,08,31,15,34,18.60
2011,08,31,15,35,18.50
2011,08,31,15,36,18.40
2011,08,31,15,37,18.20
2011,08,31,15,38,18.20
2011,08,31,15,39,18.20
2011,08,31,15,40,18.20
2011,08,31,15,41,18.20
2011,08,31,15,42,18.10
2011,08,31,15,43,18.10
2011,08,31,15,44,18.20
2011,08,31,15,45,18.20
2011,08,31,15,46,18.20
2011,08,31,15,47,18.30
2011,08,31,15,48,18.40
2011,08,31,15,49,18.50
2011,08,31,15,50,18.60
2011,08,31,15,51,18.60
2011,08,31,15,52,18.60
2011,08,31,15,53,18.70
2011,08,31,15,54,18.70
2011,08,31,15,55,18.70
2011,08,31,15,56,18.70
2011,08,31,15,57,18.70
2011,08,31,15,58,18.70
2011,08,31,15,59,18.60
2011,08,31,16,00,18.40
2011,08,31,16,01,18.40
2011,08,31,16,02,18.40
2011,08,31,16,03,18.40
2011,08,31,16,04,18.50
2011,08,31,16,05,18.50
2011,08,31,16,06,18.40
2011,08,31,16,07,18.40
2011,08,31,16,08,18.40
2011,08,31,16,09,18.30
2011,08,31,16,10,18.30
2011,08,31,16,11,18.30
2011,08,31,16,12,18.40
2011,08,31,16,13,18.40
2011,08,31,16,14,18.30
2011,08,31,16,15,18.30
2011,08,31,16,16,18.40
2011,08,31,16,17,18.40
2011,08,31,16,18,18.50
2011,08,31,16,19,18.60
2011,08,31,16,20,18.60
2011,08,31,16,21,18.70
2011,08,31,16,22,18.70
2011,08,31,16,23,18.70
2011,08,31,16,24,18.70
2011,08,31,16,25,18.80
2011,08,31,16,26,18.80
2011,08,31,16,27,18.80
2011,08,31,16,28,18.70
2011,08,31,16,29,18.70
2011,08,31,16,30,18.70
2011,08,31,16,31,18.70
2011,08,31,16,32,18.70
2011,08,31,16,33,18.60
2011,08,31,16,34,18.50
2011,08,31,16,35,18.40
2011,08,31,16,36,18.40
2011,08,31,16,37,18.40
2011,08,31,16,38,18.40
2011,08,31,16,39,18.40
2011,08,31,16,40,18.40
2011,08,31,16,41,18.40
2011,08,31,16,42,18.40
2011,08,31,16,43,18.40
2011,08,31,16,44,18.40
2011,08,31,16,45,18.40
2011,08,31,16,46,18.40
2011,08,31,16,47,18.40
2011,08,31,16,48,18.50
2011,08,31,16,49,18.60
2011,08,31,16,50,18.60
2011,08,31,16,51,18.60
2011,08,31,16,52,18.60
2011,08,31,16,53,18.60
2011,08,31,16,54,18.60
2011,08,31,16,55,18.50
2011,08,31,16,56,18.40
2011,08,31,16,57,18.40
2011,08,31,16,58,18.40
2011,08,31,16,59,18.40
2011,08,31,17,00,18.40
2011,08,31,17,01,18.50
2011,08,31,17,02,18.50
2011,08,31,17,03,18.60
2011,08,31,17,04,18.60
2011,08,31,17,05,18.60
2011,08,31,17,06,18.60
2011,08,31,17,07,18.60
2011,08,31,17,08,18.60
2011,08,31,17,09,18.60
2011,08,31,17,10,18.60
2011,08,31,17,11,18.60
2011,08,31,17,12,18.60
2011,08,31,17,13,18.60
2011,08,31,17,14,18.60
2011,08,31,17,15,18.50
2011,08,31,17,16,18.40
2011,08,31,17,17,18.40
2011,08,31,17,18,18.30
2011,08,31,17,19,18.30
2011,08,31,17,20,18.30
2011,08,31,17,21,18.30
2011,08,31,17,22,18.30
2011,08,31,17,23,18.20
2011,08,31,17,24,18.20
2011,08,31,17,25,18.10
2011,08,31,17,26,18.00
2011,08,31,17,27,18.00
2011,08,31,17,28,18.00
2011,08,31,17,29,18.00
2011,08,31,17,30,18.00
2011,08,31,17,31,18.00
2011,08,31,17,32,18.10